Location: Peterborough
(44.3091°N, 78.3197°W)
Time: 15:45:41
(UTC-04:00)

Transit 2A Rocket - Pass Details

Date: 24 March 2023
Orbit: 584 x 914 km, 66.7° (Epoch: 04 June)

Event Time Altitude Azimuth Distance (km) Brightness Sun altitude
Rises 13:21:16 0° 225° (SW) 3,240 8.7 47.2°
Reaches altitude 10° 13:23:38 10° 230° (SW) 2,365 8.1 47.2°
Maximum altitude 13:29:00 54° 308° (NW) 1,022 6.0 47.2°
Drops below altitude 10° 13:34:50 10° 25° (NNE) 2,560 7.4 47.1°
Sets 13:37:30 0° 30° (NNE) 3,530 8.1 47.0°
